Weather in Aeroport

Russia / Mari El Republic     56°41′59″N   47°54′33″E
temp.,
°C
wind,
m/s
gust,
m/s
humid.,
%
clouds,
%
prec.,
mm/h
press.,
hPa
HPBL,
m
2 march, tue
tue200:00−5sw71395100 1.3 1008611
03:00−3sw71495100 4.4 1004723
06:00−2sw71395100 1.7 999614
09:000w51198100 2.9 998585
12:00+1w51098100 1.4 996709
15:00+1wnw5109099 1.6 996887
18:00−1w5129488 0.1 997602
21:00−2wnw5128991 0.2 999518
3 march, wed
wed300:00−4wnw489488 0.0 999259
03:00−6w399687 0.1 1000237
06:00−5wnw4109597 0.2 1000474
09:00−5nw5109299 0.3 1001586
12:00−4nw6987100 0.3 1002759
15:00−5nw6988100 0.3 1004741
18:00−6wnw51089100 0.1 1004735
21:00−8w4109299 0.1 1005267
4 march, thu
thu400:00−10wsw379760 0.1 1003170
03:00−7wsw4109576 0.4 1002398
06:00−6wsw4109599 0.2 1000411
09:00−4sw5995100 0.3 999502
12:00−2ssw61094100 0.6 995782
15:00−1sw71395100 2.0 992947
18:000wsw71392100 0.4 990987
21:00−3wsw51288100 2.0 991830
5 march, fri
fri500:00−5w61387100 0.0 991672
03:00−8wnw5119399 0.0 995433
06:00−12wnw41094100 0.0 999294
09:00−12nw499179 0.0 1003365
12:00−10wnw478862 0.0 1005541
15:00−9wnw488679 0.0 1008655
18:00−12wnw2395100 0.0 101025
21:00−15nw129527 0.0 101020
6 march, sat
sat600:00−17e119671 0.0 101120
03:00−16e229486 0.0 101020
06:00−15e2293100 0.0 100823
09:00−13ne2391100 0.0 1007144
12:00−10nne348869 0.0 1006332
15:00−8n358836 0.0 1006424
18:00−12wnw129694 0.0 100621
21:00−11wsw239695 0.1 100762